星链-3561 (STARLINK-3561 )

导读 | 星芒AI

STARLINK-3561 是 SpaceX Starlink 项目中的一颗低轨通信卫星,属于第 12 批 Starlink 卫星发射任务(2021 年 11 月)。它运行在约 550 公里的高度,旨在为全球提供高速互联网服务。该卫星采用先进的推进和激光通信技术,支持星间链路,提高网络效率和覆盖范围。作为 Starlink 卫星群的一部分,STARLINK-3561 有助于减少互联网接入的数字鸿沟,特别是在偏远和农村地区。

基本信息
目录编号:
52284
目录名称:
STARLINK-3561
国际标识:
2022-041Z
轨道中心:
EARTH
卫星名称:
星链-3561
卫星全名:
星链-3561 (STARLINK-3561 )
卫星状态:
在轨 (已飞行1293 天)
发射日期:
2022-04-21 UTC
国别 :
美国 (US)
星等 :
--
轨道信息
数据来源 国际轨道数据
星历时间: 2025-11-04T14:00:41+0800
9小时前
查看轨道信息
半长轴: 6917.859km
偏心率: 0.0001414
轨道倾角: 53.217°
近地点辐角 82.384°
升交点赤经 302.239°
平近点角 277.731°
近地点: 538.745km
远地点: 540.703km
周期: 95.437分钟
每日圈数: 15.088473
详细信息
固有亮度:
5
最大亮度:
2.5
卫星平台:
Starlink v1.5
覆盖范围:
全球
运营商:
太空探索技术公司
运营商所在国:
美国
制造商(研发单位):
太空探索技术公司
制造商所在国:
美国
使用方式:
暂无
卫星简介
星链(Starlink)计划是由太空探索技术公司(SpaceX)提出的一个巨型低轨卫星互联网星座项目,计划在2019年至2024年间在太空搭建由约1.2万颗卫星组成的“星链”网络,其中1584颗将部署在地球上空550千米处的近地轨道,并从2020年开始工作。该卫星仍在工作。
2D轨道图
3D轨道图
轨道高度分析图
轨道倾角分析图
轨道综合分析图
查看轨道综合分析图